• In Romania
  • List of Countries
  • For 7 days
  • Water Temperature
  • Satellite Maps
  • Weather Map
  • Weather Widgets
  • user-avatar
    Login

    Hourly Weather Salzburg

    Today, 25 September, Tuesday

    Time Temperature Precipitation Wind Pressure Humidity
    00:00 -3°C° 0 mm 2 mps 634 mmHg 91%
    01:00 -3°C° 0 mm 2 mps 634 mmHg 91%
    02:00 -3°C° 0 mm 2 mps 634 mmHg 91%
    03:00 -3°C° 0 mm 2 mps 634 mmHg 90%
    04:00 -3°C° 0 mm 2 mps 634 mmHg 90%
    05:00 -3°C° 0 mm 2 mps 635 mmHg 89%
    06:00 -3°C° 0 mm 2 mps 635 mmHg 87%
    07:00 0°C° 0 mm 1 mps 635 mmHg 86%
    08:00 -1°C° 0 mm 2 mps 636 mmHg 78%
    09:00 +2°C° 0 mm 2 mps 636 mmHg 71%
    10:00 +3°C° 0 mm 2 mps 637 mmHg 63%
    11:00 +4°C° 0 mm 2 mps 637 mmHg 59%
    12:00 +5°C° 0 mm 2 mps 637 mmHg 55%
    13:00 +6°C° 0 mm 2 mps 637 mmHg 50%
    14:00 +6°C° 0 mm 2 mps 637 mmHg 51%
    15:00 +6°C° 0 mm 2 mps 637 mmHg 52%
    16:00 +5°C° 0 mm 2 mps 636 mmHg 53%
    17:00 +3°C° 0 mm 2 mps 636 mmHg 63%
    18:00 +2°C° 0 mm 1 mps 635 mmHg 72%
    19:00 -1°C° 0 mm 1 mps 635 mmHg 82%
    20:00 -1°C° 0 mm 1 mps 635 mmHg 82%
    21:00 -1°C° 0 mm 1 mps 635 mmHg 82%
    22:00 -2°C° 0 mm 1 mps 636 mmHg 82%
    23:00 -2°C° 0 mm 1 mps 636 mmHg 79%

    Tomorrow, 26 September, Wednesday

    Time Temperature Precipitation Wind Pressure Humidity
    00:00 -2°C° 0 mm 1 mps 636 mmHg 77%
    01:00 -2°C° 0 mm 1 mps 636 mmHg 74%
    02:00 -2°C° 0 mm 1 mps 635 mmHg 72%
    03:00 -2°C° 0 mm 1 mps 635 mmHg 70%
    04:00 -2°C° 0 mm 1 mps 635 mmHg 68%
    05:00 -1°C° 0 mm 1 mps 635 mmHg 65%
    06:00 0°C° 0 mm 1 mps 636 mmHg 61%
    07:00 +1°C° 0 mm 1 mps 636 mmHg 57%
    08:00 +4°C° 0 mm 1 mps 637 mmHg 49%
    09:00 +7°C° 0 mm 1 mps 638 mmHg 42%
    10:00 +11°C° 0 mm 1 mps 639 mmHg 34%
    11:00 +12°C° 0 mm 1 mps 639 mmHg 33%
    12:00 +13°C° 0 mm 1 mps 639 mmHg 32%
    13:00 +14°C° 0 mm 1 mps 639 mmHg 31%
    14:00 +14°C° 0 mm 1 mps 639 mmHg 37%
    15:00 +13°C° 0 mm 1 mps 638 mmHg 43%
    16:00 +12°C° 0 mm 1 mps 638 mmHg 49%
    17:00 +10°C° 0 mm 1 mps 637 mmHg 58%
    18:00 +7°C° 0 mm 1 mps 636 mmHg 68%
    19:00 +4°C° 0 mm 1 mps 635 mmHg 77%
    20:00 +4°C° 0 mm 1 mps 635 mmHg 73%
    21:00 +4°C° 0 mm 1 mps 636 mmHg 70%
    22:00 +4°C° 0 mm 1 mps 636 mmHg 66%
    23:00 +4°C° 0 mm 1 mps 636 mmHg 61%

    Day after tomorrow, 27 September, Thursday

    Time Temperature Precipitation Wind Pressure Humidity
    00:00 +4°C° 0 mm 1 mps 636 mmHg 56%
    01:00 +3°C° 0 mm 1 mps 635 mmHg 50%
    02:00 +3°C° 0 mm 1 mps 635 mmHg 47%
    03:00 +3°C° 0 mm 1 mps 635 mmHg 44%
    04:00 +3°C° 0 mm 1 mps 635 mmHg 41%
    05:00 +4°C° 0 mm 1 mps 635 mmHg 42%
    06:00 +4°C° 0 mm 1 mps 635 mmHg 43%
    07:00 +5°C° 0 mm 1 mps 635 mmHg 44%
    08:00 +8°C° 0 mm 1 mps 636 mmHg 41%
    09:00 +11°C° 0 mm 1 mps 637 mmHg 38%
    10:00 +14°C° 0 mm 1 mps 638 mmHg 35%
    11:00 +15°C° 0 mm 1 mps 638 mmHg 35%
    12:00 +16°C° 0 mm 1 mps 638 mmHg 35%
    13:00 +18°C° 0 mm 1 mps 638 mmHg 35%
    14:00 +16°C° 0 mm 1 mps 637 mmHg 40%
    15:00 +15°C° 0 mm 1 mps 637 mmHg 46%
    16:00 +15°C° 0 mm 1 mps 636 mmHg 52%
    17:00 +12°C° 0 mm 1 mps 635 mmHg 60%
    18:00 +9°C° 0 mm 1 mps 634 mmHg 69%
    19:00 +6°C° 0 mm 1 mps 633 mmHg 78%
    20:00 +6°C° 0 mm 1 mps 633 mmHg 77%
    21:00 +6°C° 0 mm 1 mps 632 mmHg 76%
    22:00 +5°C° 0 mm 1 mps 632 mmHg 75%
    23:00 +5°C° 0 mm 1 mps 632 mmHg 74%

    28 September, Friday

    Time Temperature Precipitation Wind Pressure Humidity
    00:00 +5°C° 0 mm 1 mps 632 mmHg 73%
    01:00 +5°C° 0 mm 1 mps 631 mmHg 72%
    02:00 +5°C° 0 mm 1 mps 631 mmHg 71%
    03:00 +5°C° 0 mm 1 mps 631 mmHg 70%
    04:00 +5°C° 0 mm 1 mps 630 mmHg 70%
    05:00 +5°C° 0 mm 1 mps 630 mmHg 68%
    06:00 +5°C° 0 mm 1 mps 630 mmHg 66%
    07:00 +6°C° 0 mm 1 mps 630 mmHg 64%
    08:00 +9°C° 0 mm 1 mps 631 mmHg 58%
    09:00 +12°C° 0 mm 1 mps 632 mmHg 51%
    10:00 +15°C° 0 mm 1 mps 633 mmHg 44%
    11:00 +16°C° 0 mm 1 mps 633 mmHg 43%
    12:00 +16°C° 0 mm 1 mps 633 mmHg 42%
    13:00 +18°C° 0 mm 1 mps 633 mmHg 41%
    14:00 +16°C° 0 mm 1 mps 632 mmHg 46%
    15:00 +16°C° 0 mm 1 mps 632 mmHg 52%
    16:00 +15°C° 0 mm 1 mps 631 mmHg 57%
    17:00 +12°C° 0 mm 1 mps 630 mmHg 68%
    18:00 +10°C° 0 mm 1 mps 630 mmHg 79%
    19:00 +7°C° 0 mm 1 mps 629 mmHg 89%
    20:00 +7°C° 0 mm 1 mps 629 mmHg 91%
    21:00 +6°C° 0 mm 1 mps 629 mmHg 92%
    22:00 +6°C° 0 mm 1 mps 629 mmHg 93%
    23:00 +6°C° 0 mm 1 mps 629 mmHg 94%

    29 September, Saturday

    Time Temperature Precipitation Wind Pressure Humidity
    00:00 +6°C° 0 mm 1 mps 628 mmHg 94%
    01:00 +5°C° 0 mm 1 mps 628 mmHg 95%
    02:00 +5°C° 0 mm 1 mps 628 mmHg 95%
    03:00 +6°C° 0 mm 1 mps 628 mmHg 95%
    04:00 +6°C° 0 mm 1 mps 628 mmHg 95%
    05:00 +6°C° 0.1 mm 1 mps 629 mmHg 95%
    06:00 +6°C° 0.1 mm 1 mps 629 mmHg 95%
    07:00 +7°C° 0.1 mm 1 mps 629 mmHg 96%
    08:00 +7°C° 0.1 mm 1 mps 630 mmHg 91%
    09:00 +8°C° 0.1 mm 1 mps 630 mmHg 87%
    10:00 +9°C° 0.1 mm 1 mps 630 mmHg 83%
    11:00 +10°C° 0.1 mm 1 mps 630 mmHg 80%
    12:00 +10°C° 0.1 mm 1 mps 630 mmHg 78%
    13:00 +10°C° 0.1 mm 1 mps 630 mmHg 76%
    14:00 +10°C° 0 mm 1 mps 630 mmHg 76%
    15:00 +10°C° 0 mm 1 mps 630 mmHg 77%
    16:00 +10°C° 0 mm 1 mps 630 mmHg 77%
    17:00 +8°C° 0 mm 1 mps 629 mmHg 83%
    18:00 +6°C° 0 mm 1 mps 629 mmHg 89%
    19:00 +5°C° 0 mm 1 mps 629 mmHg 95%
    20:00 +4°C° 0 mm 1 mps 629 mmHg 96%
    21:00 +4°C° 0 mm 1 mps 629 mmHg 96%
    22:00 +4°C° 0 mm 1 mps 629 mmHg 96%
    23:00 +4°C° 0 mm 1 mps 628 mmHg 96%

    30 September, Sunday

    Time Temperature Precipitation Wind Pressure Humidity
    00:00 +4°C° 0 mm 1 mps 628 mmHg 96%
    01:00 +4°C° 0 mm 1 mps 628 mmHg 96%
    02:00 +4°C° 0 mm 1 mps 628 mmHg 96%
    03:00 +3°C° 0 mm 1 mps 628 mmHg 95%
    04:00 +3°C° 0 mm 1 mps 627 mmHg 95%
    05:00 +4°C° 0 mm 1 mps 627 mmHg 95%
    06:00 +4°C° 0 mm 1 mps 627 mmHg 94%
    07:00 +4°C° 0 mm 1 mps 627 mmHg 93%
    08:00 +7°C° 0 mm 1 mps 628 mmHg 84%
    09:00 +9°C° 0 mm 1 mps 629 mmHg 74%
    10:00 +12°C° 0 mm 1 mps 630 mmHg 65%
    11:00 +12°C° 0 mm 1 mps 630 mmHg 61%
    12:00 +13°C° 0 mm 1 mps 630 mmHg 57%
    13:00 +14°C° 0 mm 1 mps 630 mmHg 53%
    14:00 +13°C° 0 mm 2 mps 629 mmHg 58%
    15:00 +13°C° 0 mm 2 mps 629 mmHg 63%
    16:00 +12°C° 0 mm 2 mps 628 mmHg 68%
    17:00 +9°C° 0.1 mm 2 mps 628 mmHg 77%
    18:00 +9°C° 0.1 mm 1 mps 628 mmHg 86%
    19:00 +7°C° 0.1 mm 1 mps 627 mmHg 95%
    20:00 +7°C° 0.1 mm 1 mps 628 mmHg 95%
    21:00 +6°C° 0.1 mm 1 mps 628 mmHg 95%
    22:00 +6°C° 0.1 mm 1 mps 628 mmHg 95%
    23:00 +6°C° 0.1 mm 1 mps 628 mmHg 95%
    Show more